map of STJ home
STJ - Airport
Location
City:  St. Joseph, Missouri, United States
Name:Rosecrans Memorial Airport
ICAO:KSTJ
IATA:STJ
FAA LID:STJ

Details
Type:Airport (Part 139 Class IV)
Use:Public/Civil
Latitude:3946'19"N (39.771944)
Longitude:9454'35"W (-94.909705)
Datum:WGS 1984
Elevation:826 ft (252 m)
Variation:1.79E (WMM2015v2 magnetic declination)
-0.08 annual change
Runways:2
Longest:8061 × 150 ft (2457 × 45.5 m), paved

Time
Time Zone:UTC-6 (DST-5)
Local Time:

Weather
METAR:KSTJ 041418Z 35019G27KT 5SM BR OVC010 M05/M06 A2990 RMK AO2 PK WND 32028/1403 T10501056
TAF:KSTJ 041134Z 0412/0512 34012G27KT 6SM BR VCSH SCT008 BKN015
TEMPO 0412/0414 3SM RASN OVC006
FM042100 01011KT P6SM SCT030

Related Locations
Nearby:
Farthest:YAUG: 10747 mi / 17296 km
Augusta [Augusta Airport], WA, AU

Find:

   beyond  
but within

Other Information
Maps:
NOTAMs:
Links:
Sources:

  
  • flag of United States
  • flag of Missouri
  

Airport Diagram

Airport diagram for STJ

Airport diagram PDF from FAA

Sectional Chart

Flight Planning
at skyvector.com

Satellite Image

Google Maps Satellite view

 

Copyright © 2004-2019 Karl L. Swartz. All rights reserved.
The Great Circle Mapper name and logo are trademarks of the Great Circle Mapper.
All other trademarks mentioned herein belong to their respective owners.
Please see credits for attibutions and further copyright information.

  Follow gcmap on Facebook Follow gcmap on Twitter GCmap on LinkedIn

hCard Microformat

Geo Microformat